Location: Unspecified
(35.7250°N, 0.0000°E)
Time: 19:00:27
(UTC+00:00)

Vanguard 2 - Pass Details

Date: 26 June 2019
Orbit: 554 x 2938 km, 32.9° (Epoch: 23 August)

Event Time Altitude Azimuth Distance (km) Brightness Sun altitude
Rises 13:17:56 0° 272° (W) 4,329 11.6 69.6°
Reaches altitude 10° 13:21:04 10° 259° (W) 3,680 11.5 69.0°
Maximum altitude 13:28:57 27° 207° (SSW) 3,280 11.5 67.6°
Drops below altitude 10° 13:40:00 10° 158° (SSE) 5,242 11.9 65.6°
Sets 13:45:41 0° 148° (SSE) 6,535 12.2 64.6°
